Location: Eferding
(48.3167°N, 14.0167°E)
Time: 15:56:38
(UTC+00:00)

Cosmos 1697 Rocket - Pass Details

Date: 12 November 2019
Orbit: 834 x 842 km, 71.0° (Epoch: 11 December)

Event Time Altitude Azimuth Distance (km) Brightness Sun altitude
Rises 18:19:51 0° 206° (SSW) 3,386 6.1 -28.3°
Reaches altitude 10° 18:22:17 10° 207° (SSW) 2,455 5.3 -28.7°
Enters shadow 18:26:52 61° 211° (SSW) 955 2.9 -29.5°
